Location: Oso Ridge
(35.0450°N, 108.0864°W)
Time: 23:54:06
(UTC-06:00)

Amateur Radio Satellites - All Passes

Search period start: 21 August 2014 23:24
Search period end: 22 August 2014 23:24
Location: Oso Ridge, 35.0450°N, 108.0864°W

Satellite Date Start Highest point End Downlink Frequencies (MHz)
Time Altitude Azimuth
KITSAT 1 22 Aug 00:13:12 00:18:42 20° 103° (ESE) 00:24:11 435.175 FM
MaSat-1 22 Aug 00:24:56 00:27:14 13° 51° (NE) 00:29:26 437.345 MHz
Saudisat 1A 22 Aug 01:01:38 01:05:53 51° 116° (ESE) 01:10:11 436.775 MHz
Oscar 19 22 Aug 01:33:17 01:35:46 13° 92° (E) 01:38:14 437.125 CW, 437.150 USB
Oscar 10/S400 22 Aug 01:51:21 03:39:09 12° 128° (SE) 05:01:02 145.825 - 145.975 CW/USB, Beacon 145.810 USB
MaSat-1 22 Aug 02:00:16 02:04:56 61° 251° (WSW) 02:08:57 437.345 MHz
Oscar 16 22 Aug 02:04:39 02:09:13 31° 97° (E) 02:13:46 437.025 USB, Beacon 2401.1428
KITSAT 1 22 Aug 02:05:09 02:13:14 74° 299° (WNW) 02:21:21 435.175 FM
AO-27 22 Aug 02:09:58 02:12:20 13° 92° (E) 02:14:42 436.795 MHz FM
Saudisat 1A 22 Aug 02:43:03 02:45:45 16° 312° (NW) 02:48:28 436.775 MHz
AO-40 22 Aug 02:59:17 04:04:46 16° 239° (WSW) 05:47:36 Beacon 2401.320
Oscar 19 22 Aug 03:10:19 03:15:26 60° 286° (WNW) 03:20:32 437.125 CW, 437.150 USB
AO-Echo 22 Aug 03:15:19 03:20:02 71° 102° (ESE) 03:24:42 ?
ITAMSAT 1 22 Aug 03:20:35 03:25:46 72° 102° (ESE) 03:30:55 435.822 SSB
Gurwin Techsat 1B 22 Aug 03:20:50 03:25:28 30° 97° (E) 03:30:05 435.225 FM
Uribyol 2 22 Aug 03:33:05 03:38:17 80° 285° (WNW) 03:43:28 436.500 FM
JAS-1B 22 Aug 03:37:20 03:44:37 75° 102° (ESE) 03:50:43 435.800 - 435.900 CW/SSB
Oscar 16 22 Aug 03:44:05 03:48:26 27° 291° (WNW) 03:52:45 437.025 USB, Beacon 2401.1428
AO-27 22 Aug 03:47:06 03:52:12 61° 286° (WNW) 03:57:17 436.795 MHz FM
OPAL 22 Aug 03:48:00 03:51:52 23° 65° (ENE) 03:55:47 ?
Sapphire 22 Aug 03:58:03 04:02:14 22° 53° (NE) 04:06:24 437.095 MHz 1200 baud AX-25 AFSK
KITSAT 1 22 Aug 04:05:13 04:10:04 17° 320° (NW) 04:14:57 435.175 FM
TMSAT-1 22 Aug 04:18:14 04:23:33 82° 103° (ESE) 04:28:50 436.925 FM
PCSat 22 Aug 04:27:57 04:33:05 42° 59° (ENE) 04:38:11 145.825 MHz
AO-Echo 22 Aug 04:57:50 04:58:09 10° 297° (WNW) 04:58:28 ?
Gurwin Techsat 1B 22 Aug 05:00:49 05:05:18 29° 291° (WNW) 05:09:47 435.225 FM
ITAMSAT 1 22 Aug 05:02:37 05:04:36 12° 297° (WNW) 05:06:35 435.822 SSB
AO-7 22 Aug 05:11:15 05:19:17 52° 102° (ESE) 05:27:15 29.400 - 29.500 MHz
OPAL 22 Aug 05:25:58 05:30:30 35° 260° (W) 05:35:08 ?
JAS-1B 22 Aug 05:29:51 05:34:04 17° 304° (WNW) 05:37:57 435.800 - 435.900 CW/SSB
Uosat F 22 Aug 05:35:37 05:40:39 89° 103° (ESE) 05:45:38 435.120 FM
Sapphire 22 Aug 05:40:41 05:45:52 47° 249° (WSW) 05:51:01 437.095 MHz 1200 baud AX-25 AFSK
TMSAT-1 22 Aug 06:01:20 06:02:43 11° 298° (WNW) 06:04:06 436.925 FM
PCSat 22 Aug 06:12:04 06:16:11 22° 254° (WSW) 06:20:17 145.825 MHz
SO-50 22 Aug 06:26:31 06:30:58 83° 299° (WNW) 06:35:31 436.795 FM
Hamsat 22 Aug 06:33:06 06:36:58 31° 97° (E) 06:40:48 145.90 MHz
STRAND 1 22 Aug 06:53:42 06:58:39 52° 73° (ENE) 07:03:36 ?
AO-7 22 Aug 07:04:38 07:11:40 32° 299° (WNW) 07:18:42 29.400 - 29.500 MHz
RS-15 22 Aug 07:36:17 07:41:56 15° 99° (E) 07:47:29 29.354 - 29.394 USB, Beacon 29.352 USB
JAS-2 22 Aug 07:36:20 07:41:29 71° 285° (WNW) 07:46:50 435.800 - 435.900 CW/SSB, 435.910 FM
SO-67 22 Aug 07:38:55 07:41:34 21° 96° (E) 07:44:13 435.3500 MHz FM
UOSAT-12 22 Aug 07:38:58 07:43:11 38° 113° (ESE) 07:47:30 437.025 FM, 437.400 FM
Hamsat 22 Aug 08:09:34 08:12:41 20° 291° (WNW) 08:15:48 145.90 MHz
STRAND 1 22 Aug 08:35:14 08:38:06 15° 267° (W) 08:40:58 ?
SO-67 22 Aug 09:12:09 09:14:27 17° 289° (WNW) 09:16:45 435.3500 MHz FM
UOSAT-12 22 Aug 09:19:53 09:23:27 22° 310° (NW) 09:27:04 437.025 FM, 437.400 FM
HO-68 22 Aug 09:25:01 09:31:09 30° 97° (E) 09:37:15 435.675 MHz FM
Saudisat 1A 22 Aug 09:32:13 09:35:16 18° 49° (NE) 09:38:19 436.775 MHz
RS-15 22 Aug 09:41:23 09:52:33 82° 116° (ESE) 10:03:30 29.354 - 29.394 USB, Beacon 29.352 USB
KITSAT 1 22 Aug 10:02:30 10:09:36 33° 51° (NE) 10:16:39 435.175 FM
UKube-1 22 Aug 10:48:36 10:52:56 75° 284° (WNW) 10:57:15 145.840 MHz, 145.915 MHz
Oscar 11 22 Aug 11:04:36 11:08:59 81° 283° (WNW) 11:13:20 145.825 FM, Beacon 2401.500 USB
FUNcube-1 22 Aug 11:04:42 11:08:49 36° 98° (E) 11:12:59 145.950 - 145.970 MHz USB
Saudisat 1A 22 Aug 11:10:52 11:15:02 43° 245° (WSW) 11:19:10 436.775 MHz
HO-68 22 Aug 11:12:14 11:18:55 45° 292° (WNW) 11:25:36 435.675 MHz FM
RS-15 22 Aug 11:57:09 12:06:10 28° 319° (NW) 12:15:10 29.354 - 29.394 USB, Beacon 29.352 USB
KITSAT 1 22 Aug 11:57:29 12:05:16 54° 249° (WSW) 12:13:00 435.175 FM
JAS-1B 22 Aug 12:32:36 12:35:07 11° 52° (NE) 12:37:36 435.800 - 435.900 CW/SSB
FUNcube-1 22 Aug 12:41:54 12:44:55 18° 291° (WNW) 12:47:59 145.950 - 145.970 MHz USB
Oscar 19 22 Aug 12:47:19 12:50:10 15° 64° (ENE) 12:53:01 437.125 CW, 437.150 USB
Uribyol 2 22 Aug 13:12:17 13:14:06 12° 62° (ENE) 13:15:55 436.500 FM
Oscar 16 22 Aug 13:18:35 13:23:06 32° 70° (ENE) 13:27:38 437.025 USB, Beacon 2401.1428
ISS 22 Aug 13:22:12 13:25:14 34° 132° (SE) 13:28:17 145.800 FM
AO-27 22 Aug 13:25:04 13:28:06 16° 64° (ENE) 13:31:09 436.795 MHz FM
JAS-1B 22 Aug 14:14:11 14:23:42 55° 69° (ENE) 14:32:49 435.800 - 435.900 CW/SSB
RS-15 22 Aug 14:21:03 14:24:10 11° 355° (N) 14:27:18 29.354 - 29.394 USB, Beacon 29.352 USB
Oscar 19 22 Aug 14:23:55 14:28:58 58° 259° (W) 14:34:04 437.125 CW, 437.150 USB
AO-Echo 22 Aug 14:24:33 14:29:43 67° 75° (ENE) 14:34:44 ?
ITAMSAT 1 22 Aug 14:35:21 14:40:31 79° 75° (ENE) 14:45:42 435.822 SSB
Gurwin Techsat 1B 22 Aug 14:38:46 14:43:32 35° 70° (ENE) 14:48:19 435.225 FM
Uribyol 2 22 Aug 14:47:45 14:52:54 74° 257° (WSW) 14:58:04 436.500 FM
Oscar 16 22 Aug 14:58:14 15:02:25 25° 264° (W) 15:06:38 437.025 USB, Beacon 2401.1428
ISS 22 Aug 14:59:24 15:02:01 21° 328° (NNW) 15:04:40 145.800 FM
SO-50 22 Aug 15:01:15 15:05:42 37° 55° (NE) 15:10:11 436.795 FM
AO-27 22 Aug 15:02:03 15:07:07 55° 259° (W) 15:12:13 436.795 MHz FM
TMSAT-1 22 Aug 15:35:43 15:41:00 89° 256° (WSW) 15:46:19 436.925 FM
PANSAT 22 Aug 15:39:53 15:41:57 14° 161° (SSE) 15:44:01 not established
MaSat-1 22 Aug 15:44:49 15:49:25 78° 294° (WNW) 15:54:32 437.345 MHz
JAS-1B 22 Aug 16:05:22 16:14:10 37° 264° (W) 16:22:50 435.800 - 435.900 CW/SSB
AO-7 22 Aug 16:06:27 16:14:27 53° 67° (ENE) 16:22:27 29.400 - 29.500 MHz
AO-Echo 22 Aug 16:06:59 16:08:48 12° 268° (W) 16:10:37 ?
UOSAT-12 22 Aug 16:12:27 16:15:26 16° 47° (NE) 16:18:24 437.025 FM, 437.400 FM
Gurwin Techsat 1B 22 Aug 16:19:16 16:23:31 24° 265° (W) 16:27:47 435.225 FM
RS-15 22 Aug 16:35:24 16:43:08 21° 33° (NNE) 16:50:59 29.354 - 29.394 USB, Beacon 29.352 USB
SO-50 22 Aug 16:42:20 16:46:02 22° 250° (WSW) 16:49:46 436.795 FM
Uosat F 22 Aug 16:45:33 16:50:35 87° 76° (ENE) 16:55:37 435.120 FM
PANSAT 22 Aug 17:18:19 17:21:36 27° 173° (S) 17:24:54 not established
Hamsat 22 Aug 17:24:33 17:27:03 15° 67° (ENE) 17:29:35 145.90 MHz
OPAL 22 Aug 17:38:23 17:43:37 79° 105° (ESE) 17:48:50 ?
JAS-2 22 Aug 17:44:41 17:50:40 35° 71° (ENE) 17:56:03 435.800 - 435.900 CW/SSB, 435.910 FM
UOSAT-12 22 Aug 17:51:19 17:55:57 56° 244° (WSW) 18:00:28 437.025 FM, 437.400 FM
AO-7 22 Aug 18:00:20 18:07:25 31° 262° (W) 18:14:32 29.400 - 29.500 MHz
Sapphire 22 Aug 18:36:13 18:41:05 36° 109° (ESE) 18:45:59 437.095 MHz 1200 baud AX-25 AFSK
RS-15 22 Aug 18:46:46 18:57:53 71° 58° (ENE) 19:09:25 29.354 - 29.394 USB, Beacon 29.352 USB
PANSAT 22 Aug 18:58:03 19:01:23 28° 186° (S) 19:04:43 not established
Hamsat 22 Aug 18:58:42 19:02:39 38° 262° (W) 19:06:41 145.90 MHz
PCSat 22 Aug 19:06:03 19:11:25 76° 114° (ESE) 19:16:50 145.825 MHz
STRAND 1 22 Aug 19:08:18 19:12:18 23° 96° (E) 19:16:17 ?
OPAL 22 Aug 19:19:57 19:21:47 12° 300° (WNW) 19:23:38 ?
JAS-2 22 Aug 19:29:34 19:35:38 33° 262° (W) 19:41:07 435.800 - 435.900 CW/SSB, 435.910 FM
SO-67 22 Aug 19:40:46 19:44:14 90° 259° (W) 19:47:43 435.3500 MHz FM
Oscar 10/S400 22 Aug 19:48:50 20:07:22 60° 157° (SSE) 21:02:28 145.825 - 145.975 CW/USB, Beacon 145.810 USB
HO-68 22 Aug 19:52:21 19:56:34 17° 58° (ENE) 20:00:47 435.675 MHz FM
ISS 22 Aug 19:54:15 19:56:12 15° 28° (NNE) 19:58:09 145.800 FM
Sapphire 22 Aug 20:19:57 20:24:31 27° 305° (NW) 20:29:07 437.095 MHz 1200 baud AX-25 AFSK
PANSAT 22 Aug 20:38:42 20:41:04 16° 198° (SSW) 20:43:26 not established
STRAND 1 22 Aug 20:46:56 20:51:30 35° 290° (WNW) 20:56:04 ?
PCSat 22 Aug 20:52:25 20:55:25 15° 312° (NW) 20:58:26 145.825 MHz
RS-15 22 Aug 21:00:27 21:09:18 28° 256° (WSW) 21:18:28 29.354 - 29.394 USB, Beacon 29.352 USB
ISS 22 Aug 21:29:56 21:33:15 70° 224° (SW) 21:36:34 145.800 FM
HO-68 22 Aug 21:36:13 21:43:23 83° 255° (WSW) 21:50:34 435.675 MHz FM
UKube-1 22 Aug 21:40:44 21:45:01 62° 75° (ENE) 21:49:19 145.840 MHz, 145.915 MHz
Oscar 11 22 Aug 21:56:19 22:00:29 51° 74° (ENE) 22:04:42 145.825 FM, Beacon 2401.500 USB
FUNcube-1 22 Aug 21:59:15 22:02:07 19° 69° (ENE) 22:05:01 145.950 - 145.970 MHz USB
